ALESUND/VIGRA current weather conditions

sailwx.info

Wind from 160 at 8 knots

Air temperature 10.0° C
Visibility: greater than 4.9 NM
Dewpoint 8.0° C
Present weather: Light rain.

Last reported at 2016-Dec-07 18:20 UTC.
Time now 2016-Dec-07 20:21 UTC

Location: N 62°34' E 006°07'.
View on Google Maps.

See reports from other nearby stations

  
Tides and Currents Weather Stations Pressure Air Temp Water Temp Dewpoint Dewpoint Depression Visibility Wind Speed Wind Dir Waves Ship Positions
date/time (UTC)wind fromknots sea level pressurealtimeterstation pressurevisibilityair tempwater tempwave heightnotes
2016-Dec-07 19:20 170 7 5.410.0 Light rain.
2016-Dec-07 18:50 180 8 5.410.0 Light rain.
2016-Dec-07 18:20 160 8 4.910.0 Light rain.
2016-Dec-07 17:50 170 7 4.910.0 Light rain.
2016-Dec-07 17:20 180 7 4.910.0 Light rain.
2016-Dec-07 16:50 150 6 3.810.0 Light rain.
2016-Dec-07 16:20 200 12 5.410.0 Rain showers.
2016-Dec-07 15:50 190 13 5.410.0 Light rain.
2016-Dec-07 15:20 210 8 5.411.0
2016-Dec-07 14:50 190 8 5.410.0
2016-Dec-07 14:20 190 11 5.410.0
2016-Dec-07 13:50 190 12 5.411.0
2016-Dec-07 13:20 190 12 5.410.0
2016-Dec-07 12:50 190 6 5.410.0 Light rain drizzle.
2016-Dec-07 12:20 190 9 5.4 9.0 Light rain.
2016-Dec-07 11:50 190 7 5.4 9.0 Light rain.
2016-Dec-07 11:20 180 6 5.4 8.0
2016-Dec-07 10:50 160 5 5.4 8.0 Showers in the vicinity.
2016-Dec-07 10:20 160 6 5.4 8.0 Light rain showers.
2016-Dec-07 09:50 170 6 5.4 7.0 Light rain showers.
2016-Dec-07 09:20 140 6 5.4 7.0
2016-Dec-07 08:50 150 6 5.4 7.0 Light rain.
2016-Dec-07 08:20 140 6 5.4 7.0 Light rain.
2016-Dec-07 07:50 150 5 5.4 7.0 Light rain.
2016-Dec-07 07:20 130 8 5.4 6.0 Light rain.
2016-Dec-07 06:50 140 6 5.4 6.0 Light rain.
2016-Dec-07 06:20 130 5 5.4 6.0 Light rain.
2016-Dec-07 05:50 140 6 5.4 7.0 Light rain.
2016-Dec-07 05:20 160 6 5.4 7.0 Light rain.
2016-Dec-07 04:50 130 7 5.4 7.0 Light rain.
2016-Dec-07 04:20 160 5 5.4 7.0 Drizzle.
2016-Dec-07 03:50 150 8 5.4 7.0 Light drizzle.
2016-Dec-07 03:20 140 7 5.4 7.0
2016-Dec-07 02:50 150 5 5.4 5.0
2016-Dec-07 02:20 140 8 5.4 5.0
2016-Dec-07 01:50 140 9 5.4 4.0
2016-Dec-07 01:20 140 7 5.4 4.0
2016-Dec-07 00:50 140 9 5.4 4.0
2016-Dec-07 00:20 140 11 5.4 3.0
2016-Dec-06 23:50 140 13 5.4 3.0
2016-Dec-06 23:20 140 11 5.4 3.0
2016-Dec-06 22:50 130 12 5.4 3.0
2016-Dec-06 22:20 150 9 5.4 2.0
2016-Dec-06 21:50 150 7 5.4 1.0
2016-Dec-06 21:20 160 7 5.4 2.0
2016-Dec-06 20:50 150 8 5.4 2.0
2016-Dec-06 20:20 150 7 5.4 2.0
2016-Dec-06 19:50 140 7 5.4 2.0
2016-Dec-06 19:20 150 8 5.4 2.0
2016-Dec-06 18:50 180 6 5.4 2.0
2016-Dec-06 18:20 160 6 5.4 2.0
2016-Dec-06 17:50 150 6 5.4 2.0
2016-Dec-06 17:20 140 7 5.4 2.0
2016-Dec-06 16:50 140 7 5.4 2.0
2016-Dec-06 16:20 150 6 5.4 2.0
2016-Dec-06 15:50 170 6 gusting 15 5.4 4.0
2016-Dec-06 15:20 190 4 5.4 3.0
2016-Dec-06 14:50 170 5 5.4 3.0
2016-Dec-06 14:20 170 6 5.4 3.0
2016-Dec-06 13:50 180 5 5.4 3.0
2016-Dec-06 13:20 160 6 5.4 4.0
2016-Dec-06 12:50 150 6 5.4 4.0
2016-Dec-06 12:20 140 7 5.4 4.0
2016-Dec-06 11:50 150 6 5.4 4.0
2016-Dec-06 11:20 150 7 5.4 4.0
2016-Dec-06 10:50 140 7 5.4 4.0
2016-Dec-06 10:20 140 7 5.4 4.0
2016-Dec-06 09:50 150 6 5.4 3.0
2016-Dec-06 09:20 150 6 5.4 3.0
2016-Dec-06 08:50 140 8 5.4 3.0
2016-Dec-06 08:20 150 6 5.4 3.0
2016-Dec-06 07:50 160 6 5.4 3.0
2016-Dec-06 07:20 160 8 5.4 3.0
2016-Dec-06 06:50 150 6 5.4 3.0
2016-Dec-06 06:20 140 6 5.4 3.0
2016-Dec-06 05:50 150 7 5.4 3.0
2016-Dec-06 05:20 150 6 5.4 3.0
2016-Dec-06 04:50 150 7 5.4 3.0
2016-Dec-06 04:20 150 6 5.4 3.0
2016-Dec-06 03:50 160 5 5.4 3.0
2016-Dec-06 03:20 160 6 5.4 3.0
2016-Dec-06 02:50 150 6 5.4 3.0
2016-Dec-06 02:20 160 6 5.4 3.0
2016-Dec-06 01:50 150 6 5.4 4.0
2016-Dec-06 01:20 180 4 5.4 4.0
2016-Dec-06 00:50 190 5 5.4 4.0
2016-Dec-06 00:20 190 4 5.4 3.0
2016-Dec-05 23:50 210 5 5.4 4.0
2016-Dec-05 23:20 190 6 4.9 4.0 Drizzle.
2016-Dec-05 22:50 150 6 5.4 4.0
2016-Dec-05 22:20 150 6 5.4 4.0
2016-Dec-05 21:50 150 6 5.4 3.0
2016-Dec-05 21:20 110 4 5.4 2.0
2016-Dec-05 20:50 040 5 5.4 3.0
2016-Dec-05 20:20 020 7 5.4 4.0